Weather in Nelkhay

Russia / Irkutsk Oblast     53°21′27″N   103°07′48″E
temp.,
°C
wind,
m/s
gust,
m/s
humid.,
%
clouds,
%
prec.,
mm/h
press.,
hPa
HPBL,
m
18 september, sat
sat1823:00+9se22897 0.0 101435
02:00+8se411835 0.0 1014257
05:00+6se412883 0.0 1014275
08:00+7se513710 0.0 1014352
11:00+14se710510 0.0 1012587
14:00+18sse68430 0.0 1010855
17:00+19sse56430 0.0 1009835
20:00+13se347056 0.0 101047
19 september, sun
sun1923:00+10se4137799 0.0 1011256
02:00+9se31080100 0.0 1012226
05:00+7ese398127 0.0 1012181
08:00+8ese287642 0.0 1012223
11:00+15sse34575 0.0 1011533
14:00+19s22485 0.0 1009784
17:00+20sse11455 0.0 1008748
20:00+14wsw116411 0.0 100911
20 september, mon
mon2023:00+13se117017 0.0 100910
02:00+10se22875 0.0 100822
05:00+8se22895 0.0 100839
08:00+10se4118313 0.0 1006287
11:00+17se79544 0.0 1003536
14:00+22sse78420 0.0 1000799
17:00+22sse56425 0.0 999932
20:00+14s227172 0.0 99911
21 september, tue
tue2123:00+11nw121784100 0.1 1005996
02:00+6nw101779100 0.2 1012932
05:00+5nw71274100 0.6 1014999
08:00+5nw4777100 0.9 1015871
11:00+5nw5770100 0.2 1016874
14:00+7nnw4658100 0.3 10151006
17:00+9nne23486 0.0 10141311
20:00+4ese22695 0.0 101512
22 september, wed
wed2223:00+2s33785 0.0 101644
02:00+1se22862 0.0 101618
05:00+1ese228848 0.0 101614
08:00+2e12815 0.0 101783
11:00+7ene215336 0.0 1017721
14:00+10n3243100 0.0 10161470
17:00+10n3443100 0.0 10171416
20:00+5nw5982100 0.0 1019374